World > North America > United States > Missouri

Bernie, Missouri Regional Weather

Lat: 36.67N, Lon: 89.97W
Wx Zone: MOZ110
Feedback

Bernie, MO Regional Weather

Expires:201910171200;;839344
ASUS43 KLSX 171057
RWRMO 

WEATHER SUMMARY FOR MISSOURI
NATIONAL WEATHER SERVICE SPRINGFIELD MO
600 AM CDT THU OCT 17 2019

NOTE: "FAIR" INDICATES FEW OR NO CLOUDS BELOW 12,000 FEET WITH NO
       SIGNIFICANT WEATHER AND/OR OBSTRUCTIONS TO VISIBILITY.
       CURRENT SKY AND/OR WEATHER CONDITIONS ARE NOT AVAILABLE FOR
       CHILLICOTHE AND FARMINGTON.


MOZ072>076-082>087-097>100-106>115-171200-
...SOUTH CENTRAL AND SOUTHEAST MISSOURI...
  
CITY           SKY/WX    TMP DP  RH WIND       PRES   REMARKS
CAPE GIRARDEAU FAIR      37  35  92 CALM      30.11R                  
POPLAR BLUFF   FAIR      39  36  89 CALM      30.12S                  
WEST PLAINS    CLEAR     36  34  92 CALM      30.12R                  
                                       
$$
  

SKY/WX - Weather  TMP - Temperature  DP - Dew Point  RH - Relative Humidity
WIND - Wind Direction/Speed PRES - Barometric Pressure VSB - Visibility
WCI - Wind Chill Index E13G22 Wind - East Wind 13 mph/Gusts of 22 mph